User: anonymous   Login
Location: Unspecified
(0.0000°N, 0.0000°E)
Time: 19:53:07
(UTC+02:00)
Language:

Iridium 15 - Orbit

View from above orbital plane
View from above orbital plane
View from above satellite
View from above satellite

Ground track
Ground track

The orbit data is extracted from the following two-line orbital elements,

1 24869U 97034A   15147.48049344  .00000029  00000-0  32975-5 0  9998
2 24869 086.3946 336.0298 0002197 091.2382 297.1301 14.34220979936172
Epoch (UTC): 27 May 2015 11:31:54
Eccentricity: 0.0002197
inclination: 86.3946°
perigee height: 776 km
apogee height: 779 km
right ascension of ascending node: 336.0298°
argument of perigee: 91.2382°
revolutions per day: 14.34220979
mean anomaly at epoch: 297.1301°
orbit number at epoch: 93617

The dashed part of the orbit path shows where the satellite is in the earth's shadow,  

DLR